SL-12 R/B(2)

基本信息
目录编号:
24829
目录名称:
SL-12 R/B(2)
国际标识:
1997-028C
轨道中心:
EARTH
物体状态:
在轨
发射日期:
1997-06-06 UTC
国别:
俄罗斯(独联体) (CIS)
轨道信息
数据来源: 国际轨道数据
星历时间: 2026-07-13T19:06:18+0800
半长轴: 8502.987km
偏心率: 0.1092004
轨道倾角: 63.315°
近地点辐角: 46.796°
升交点赤经: 206.081°
平近点角: 64.473°
近地点: 1196.32km
远地点: 3053.38km
周期: 130.052分钟
每日圈数: 11.072495
详细信息
发射场:
TTMTR
轨道高度:
LEO
数据来源:
AOE Integration Group
参考系:
TEME
时间系统:
UTC
历元类型:
SGP4
2D轨道图
3D轨道图
轨道高度分析图
轨道倾角分析图
轨道综合分析图
查看轨道综合分析图